N2ADK Weather Reports


time (UTC)temp
C
wind
direction
speed
KPH
gust
KPH
rain 1hr
cm
rain 24hr
cm
rain mn
cm
humidity
%
barometer
mb
20260509222516 14 0 0.0 0.0 0.00 0.18 0.18 81 1006.3
20260509222018 14 0 0.0 0.0 0.00 0.18 0.18 80 1006.3
20260509221534 14 0 0.0 0.0 0.00 0.18 0.18 82 1006.2
20260509221017 13 0 0.0 0.0 0.00 0.18 0.18 82 1006.2
20260509220516 13 0 0.0 0.0 0.00 0.18 0.18 81 1006.1
20260509220030 13 0 0.0 0.0 0.00 0.18 0.18 82 1006.2
20260509215516 13 0 0.0 0.0 0.00 0.18 0.18 82 1006.2
20260509215017 13 0 0.0 0.0 0.00 0.18 0.18 82 1006.4
20260509214532 13 0 0.0 0.0 0.00 0.18 0.18 82 1006.7
20260509214015 13 0 0.0 0.0 0.00 0.18 0.18 81 1006.7
20260509213517 13 0 0.0 0.0 0.00 0.18 0.18 82 1006.6
20260509213034 13 0 0.0 0.0 0.00 0.18 0.18 81 1006.6
20260509212517 13 0 0.0 0.0 0.00 0.18 0.18 82 1006.4
20260509212020 13 0 0.0 0.0 0.00 0.18 0.18 82 1006.5
20260509211533 13 0 0.0 0.0 0.00 0.18 0.18 83 1006.5
20260509211016 13 0 0.0 0.0 0.00 0.18 0.18 81 1006.6
20260509210513 13 0 0.0 0.0 0.00 0.18 0.18 81 1006.7
20260509210035 13 0 0.0 0.0 0.00 0.18 0.18 81 1006.6
20260509205514 13 0 0.0 0.0 0.00 0.18 0.18 82 1006.8
20260509205014 13 0 0.0 0.0 0.00 0.18 0.18 80 1006.7
20260509204545 13 0 0.0 0.0 0.00 0.18 0.18 81 1006.7
20260509204020 13 0 0.0 0.0 0.00 0.18 0.18 81 1006.8
20260509203517 14 0 0.0 0.0 0.00 0.18 0.18 80 1006.9
20260509203038 14 0 0.0 0.0 0.00 0.18 0.18 80 1006.9
20260509202517 13 0 0.0 0.0 0.00 0.18 0.18 80 1007.0
20260509202015 13 0 0.0 0.0 0.00 0.18 0.18 81 1007.1
20260509201535 13 0 0.0 0.0 0.00 0.18 0.18 82 1007.0
20260509201022 13 0 0.0 0.0 0.00 0.18 0.18 80 1007.1
20260509200518 14 0 0.0 0.0 0.00 0.18 0.18 80 1007.1
20260509200030 14 0 0.0 0.0 0.00 0.18 0.18 80 1007.0
20260509195515 14 0 0.0 0.0 0.00 0.18 0.18 79 1006.9
20260509195014 14 0 0.0 0.0 0.00 0.18 0.18 82 1007.1
20260509194532 14 0 0.0 0.0 0.00 0.18 0.18 81 1007.1
20260509194015 14 0 0.0 0.0 0.00 0.18 0.18 81 1007.1
20260509193517 14 0 0.0 0.0 0.00 0.18 0.18 80 1007.1
20260509193030 15 0 0.0 0.0 0.00 0.18 0.18 79 1007.2
20260509192514 15 0 0.0 0.0 0.00 0.18 0.18 79 1007.3
20260509192015 15 0 0.0 0.0 0.00 0.18 0.18 80 1007.3
20260509191537 14 0 0.0 0.0 0.00 0.18 0.18 81 1007.3
20260509191016 15 0 0.0 0.0 0.00 0.18 0.18 82 1007.4
20260509190517 14 0 0.0 0.0 0.00 0.18 0.18 80 1007.5
20260509190034 15 0 0.0 0.0 0.00 0.18 0.18 81 1007.6
20260509185517 14 0 0.0 0.0 0.00 0.18 0.18 84 1007.7
20260509185017 14 0 0.0 0.0 0.00 0.18 0.18 85 1007.6
20260509184541 13 0 0.0 0.0 0.00 0.18 0.18 84 1007.7
20260509184018 13 0 0.0 0.0 0.00 0.18 0.18 84 1007.8
20260509183517 13 0 0.0 0.0 0.00 0.18 0.18 85 1007.7
20260509183032 13 0 0.0 0.0 0.00 0.18 0.18 84 1007.7
20260509182515 13 0 0.0 0.0 0.00 0.18 0.18 84 1007.7
20260509182013 13 0 0.0 0.0 0.00 0.18 0.18 85 1007.8
20260509181537 13 0 0.0 0.0 0.00 0.18 0.18 86 1007.8
20260509181015 13 0 0.0 0.0 0.00 0.18 0.18 86 1007.9
20260509180515 13 0 0.0 0.0 0.00 0.18 0.18 85 1007.9
20260509180034 13 0 0.0 0.0 0.00 0.18 0.18 85 1007.8
20260509175519 13 0 0.0 0.0 0.00 0.18 0.18 85 1007.7
20260509175017 12 0 0.0 0.0 0.00 0.18 0.18 85 1007.7
20260509174532 13 0 0.0 0.0 0.00 0.18 0.18 85 1007.8
20260509174018 13 0 0.0 0.0 0.00 0.18 0.18 85 1007.8
20260509173517 13 0 0.0 0.0 0.00 0.18 0.18 84 1007.7
20260509173034 13 0 0.0 0.0 0.00 0.18 0.18 83 1007.7
20260509172517 13 0 0.0 0.0 0.00 0.18 0.18 83 1007.9
20260509172017 13 0 0.0 0.0 0.00 0.18 0.18 84 1007.8
20260509171531 13 0 0.0 0.0 0.00 0.18 0.18 82 1007.8
20260509171019 13 0 0.0 0.0 0.00 0.18 0.18 85 1007.8
20260509170515 13 0 0.0 0.0 0.00 0.18 0.18 85 1007.8
20260509170042 12 0 0.0 0.0 0.00 0.18 0.18 86 1007.9
20260509165516 12 0 0.0 0.0 0.00 0.18 0.18 87 1007.9
20260509165018 12 0 0.0 0.0 0.00 0.18 0.18 88 1008.1
20260509164536 12 0 0.0 0.0 0.00 0.18 0.18 87 1008.1
20260509164018 12 0 0.0 0.0 0.00 0.18 0.18 87 1008.2
20260509163517 12 0 0.0 0.0 0.00 0.18 0.18 87 1008.2
20260509163032 12 0 0.0 0.0 0.00 0.18 0.18 88 1008.3
20260509162516 12 0 0.0 0.0 0.00 0.18 0.18 88 1008.3
20260509162025 12 0 0.0 0.0 0.00 0.18 0.18 89 1008.3
20260509161535 12 0 0.0 0.0 0.00 0.18 0.18 89 1008.4
20260509161017 12 0 0.0 0.0 0.00 0.18 0.18 89 1008.5
20260509160514 12 0 0.0 0.0 0.00 0.18 0.18 89 1008.5
20260509160037 12 0 0.0 0.0 0.00 0.18 0.18 91 1008.5
20260509155514 12 0 0.0 0.0 0.00 0.18 0.18 92 1008.5
20260509155018 11 0 0.0 0.0 0.00 0.18 0.18 91 1008.6
20260509154532 11 0 0.0 0.0 0.00 0.18 0.18 92 1008.7
20260509154016 11 0 0.0 0.0 0.00 0.18 0.18 91 1008.7
20260509153519 11 0 0.0 0.0 0.00 0.18 0.18 93 1008.8
20260509153039 11 0 0.0 0.0 0.03 0.18 0.18 93 1008.9
20260509152514 11 0 0.0 0.0 0.03 0.18 0.18 94 1009.0
20260509152014 11 0 0.0 0.0 0.03 0.18 0.18 94 1009.0
20260509151530 11 0 0.0 0.0 0.03 0.18 0.18 93 1009.1
20260509151014 10 0 0.0 0.0 0.03 0.18 0.18 93 1009.1
20260509150517 10 0 0.0 0.0 0.03 0.18 0.18 93 1009.3
20260509150034 10 0 0.0 0.0 0.03 0.18 0.18 93 1009.3
20260509145517 10 0 0.0 0.0 0.05 0.36 0.18 94 1009.2
20260509145017 10 0 0.0 0.0 0.05 0.36 0.18 94 1009.3
20260509144534 10 0 0.0 0.0 0.05 0.36 0.18 94 1009.4
20260509144017 10 0 0.0 0.0 0.05 0.36 0.18 94 1009.4
20260509143517 10 0 0.0 0.0 0.08 0.36 0.18 94 1009.5
20260509143031 10 0 0.0 0.0 0.05 0.33 0.15 94 1009.6
20260509142517 10 0 0.0 0.0 0.05 0.33 0.15 94 1009.5
20260509142016 10 0 0.0 0.0 0.05 0.33 0.15 94 1009.5
20260509141532 10 0 0.0 0.0 0.08 0.33 0.15 95 1009.4
20260509141017 10 0 0.0 0.0 0.08 0.33 0.15 95 1009.4
20260509140516 10 0 0.0 0.0 0.08 0.33 0.15 95 1009.4
20260509140035 9 0 0.0 0.0 0.08 0.33 0.15 95 1009.4
20260509135518 9 0 0.0 0.0 0.05 0.30 0.13 95 1009.4
20260509135014 9 0 0.0 0.0 0.08 0.30 0.13 94 1009.4
20260509134529 9 0 0.0 0.0 0.08 0.30 0.13 94 1009.5
20260509134018 9 0 0.0 0.0 0.08 0.30 0.13 94 1009.5
20260509133517 9 0 0.0 0.0 0.05 0.28 0.10 94 1009.6
20260509133032 8 0 0.0 0.0 0.05 0.28 0.10 94 1009.8
20260509132517 8 0 0.0 0.0 0.05 0.28 0.10 94 1009.7
20260509132019 8 0 0.0 0.0 0.08 0.28 0.10 93 1009.7
20260509131535 8 0 0.0 0.0 0.05 0.25 0.08 93 1009.7
20260509131018 8 0 0.0 0.0 0.05 0.25 0.08 93 1009.7
20260509130514 8 0 0.0 0.0 0.05 0.25 0.08 93 1009.8
20260509130032 8 0 0.0 0.0 0.05 0.25 0.08 93 1009.8
20260509125514 8 0 0.0 0.0 0.08 0.25 0.08 93 1009.8
20260509125018 8 0 0.0 0.0 0.05 0.23 0.05 93 1009.8
20260509124530 8 0 0.0 0.0 0.05 0.23 0.05 93 1009.8
20260509124017 8 0 0.0 0.0 0.05 0.23 0.05 93 1009.7
20260509123514 8 0 0.0 0.0 0.05 0.23 0.05 92 1009.8
20260509123034 8 0 0.0 0.0 0.05 0.23 0.05 92 1009.8
20260509122516 8 0 0.0 0.0 0.05 0.23 0.05 92 1009.9
20260509122017 8 0 0.0 0.0 0.03 0.20 0.03 91 1010.0
20260509121534 8 0 0.0 0.0 0.03 0.20 0.03 91 1010.0
20260509121016 8 0 0.0 0.0 0.03 0.20 0.03 90 1010.1
20260509120514 7 0 0.0 0.0 0.03 0.20 0.03 90 1010.1
20260509120037 7 0 0.0 0.0 0.03 0.20 0.03 90 1010.2
20260509115514 7 0 0.0 0.0 0.00 0.18 0.00 89 1010.1
20260509115015 7 0 0.0 0.0 0.00 0.18 0.00 88 1010.1
20260509114533 7 0 0.0 0.0 0.00 0.18 0.00 88 1010.0
20260509114017 7 0 0.0 0.0 0.00 0.18 0.00 87 1010.1
20260509113514 7 0 0.0 0.0 0.00 0.18 0.00 87 1010.0
20260509113035 7 0 0.0 0.0 0.00 0.18 0.00 87 1010.0
20260509112514 7 0 0.0 0.0 0.00 0.18 0.00 87 1010.1
20260509112019 7 0 0.0 0.0 0.00 0.18 0.00 86 1010.1
20260509111535 7 0 0.0 0.0 0.00 0.18 0.00 85 1010.1
20260509111018 6 0 0.0 0.0 0.00 0.18 0.00 85 1010.2
20260509110518 6 0 0.0 0.0 0.00 0.18 0.00 86 1010.1
20260509110035 6 0 0.0 0.0 0.00 0.18 0.00 85 1010.0
20260509105518 6 0 0.0 0.0 0.00 0.18 0.00 85 1009.9
20260509105020 6 0 0.0 0.0 0.00 0.18 0.00 84 1010.0
20260509104540 6 0 0.0 0.0 0.00 0.18 0.00 85 1009.9
20260509104019 6 0 0.0 0.0 0.00 0.18 0.00 87 1010.0
20260509103518 5 0 0.0 0.0 0.00 0.18 0.00 86 1010.1
20260509103040 5 0 0.0 0.0 0.00 0.18 0.00 87 1010.1
20260509102518 5 0 0.0 0.0 0.00 0.18 0.00 86 1010.0
20260509102019 5 0 0.0 0.0 0.00 0.18 0.00 86 1009.9
20260509101550 5 0 0.0 0.0 0.00 0.18 0.00 86 1009.8
20260509101021 5 0 0.0 0.0 0.00 0.18 0.00 85 1009.7
20260509100520 5 0 0.0 0.0 0.00 0.18 0.00 85 1009.8
20260509100041 5 0 0.0 0.0 0.00 0.18 0.00 85 1010.0
20260509095518 5 0 0.0 0.0 0.00 0.18 0.00 85 1009.9
20260509095018 5 0 0.0 0.0 0.00 0.18 0.00 85 1009.8
20260509094534 5 0 0.0 0.0 0.00 0.18 0.00 85 1009.8
20260509094018 5 0 0.0 0.0 0.00 0.18 0.00 85 1009.7
20260509093519 5 0 0.0 0.0 0.00 0.18 0.00 85 1009.6
20260509093035 5 0 0.0 0.0 0.00 0.18 0.00 85 1009.7
20260509092519 5 0 0.0 0.0 0.00 0.18 0.00 85 1010.0
20260509092018 5 0 0.0 0.0 0.00 0.18 0.00 84 1009.9
20260509091534 5 0 0.0 0.0 0.00 0.18 0.00 84 1009.8
20260509091018 5 0 0.0 0.0 0.00 0.18 0.00 84 1010.0
20260509090519 5 0 0.0 0.0 0.00 0.18 0.00 84 1010.3
20260509090043 5 0 0.0 0.0 0.00 0.18 0.00 84 1010.4
20260509085518 5 0 0.0 0.0 0.00 0.23 0.00 83 1010.4
20260509085018 5 0 0.0 0.0 0.00 0.23 0.00 83 1010.4
20260509084543 5 0 0.0 0.0 0.00 0.23 0.00 83 1010.4
20260509084021 5 0 0.0 0.0 0.00 0.23 0.00 84 1010.3
20260509083519 5 0 0.0 0.0 0.00 0.23 0.00 84 1010.4
20260509083039 5 0 0.0 0.0 0.00 0.23 0.00 84 1010.6
20260509082519 5 0 0.0 0.0 0.00 0.23 0.00 85 1010.5
20260509082022 5 0 0.0 0.0 0.00 0.23 0.00 85 1010.4
20260509081646 5 0 0.0 0.0 0.00 0.23 0.00 85 1010.6
20260509081016 5 0 0.0 0.0 0.00 0.23 0.00 84 1010.6
20260509080514 5 0 0.0 0.0 0.00 0.23 0.00 85 1010.6
20260509080035 5 0 0.0 0.0 0.00 0.23 0.00 85 1010.8
20260509075517 5 0 0.0 0.0 0.00 0.38 0.00 85 1010.7
20260509075017 4 0 0.0 0.0 0.00 0.38 0.00 85 1010.6
20260509074532 4 0 0.0 0.0 0.00 0.38 0.00 85 1010.8
20260509074017 4 0 0.0 0.0 0.00 0.38 0.00 86 1010.8
20260509073521 4 0 0.0 0.0 0.00 0.38 0.00 86 1010.8
20260509073104 4 0 0.0 0.0 0.00 0.38 0.00 86 1010.5
20260509072521 3 0 0.0 0.0 0.00 0.38 0.00 86 1010.7
20260509072021 3 0 0.0 0.0 0.00 0.38 0.00 86 1010.6
20260509071536 3 0 0.0 0.0 0.00 0.38 0.00 86 1010.6
20260509071017 3 0 0.0 0.0 0.00 0.38 0.00 86 1010.6
20260509070514 3 0 0.0 0.0 0.00 0.38 0.00 85 1010.7
20260509070032 3 0 0.0 0.0 0.00 0.38 0.00 85 1010.8
20260509065516 3 0 0.0 0.0 0.00 0.38 0.00 85 1010.8
20260509065018 3 0 0.0 0.0 0.00 0.38 0.00 86 1010.8
20260509064534 4 0 0.0 0.0 0.00 0.38 0.00 85 1010.8
20260509064018 4 0 0.0 0.0 0.00 0.38 0.00 85 1010.7
20260509063517 4 0 0.0 0.0 0.00 0.38 0.00 85 1010.9
20260509063032 4 0 0.0 0.0 0.00 0.38 0.00 86 1011.0
20260509062514 4 0 0.0 0.0 0.00 0.38 0.00 86 1011.1
20260509062016 4 0 0.0 0.0 0.00 0.38 0.00 86 1011.3
20260509061535 4 0 0.0 0.0 0.00 0.38 0.00 86 1011.3
20260509061018 4 0 0.0 0.0 0.00 0.38 0.00 85 1011.3
20260509060514 4 0 0.0 0.0 0.00 0.38 0.00 85 1011.4
20260509060046 4 0 0.0 0.0 0.00 0.38 0.00 84 1011.3
20260509055517 4 0 0.0 0.0 0.00 0.38 0.00 84 1011.4
20260509055017 4 0 0.0 0.0 0.00 0.38 0.00 84 1011.5
20260509054533 4 0 0.0 0.0 0.00 0.38 0.00 84 1011.5
20260509054018 5 0 0.0 0.0 0.00 0.38 0.00 84 1011.7
20260509053517 5 0 0.0 0.0 0.00 0.38 0.00 84 1011.7
20260509053035 5 0 0.0 0.0 0.00 0.38 0.00 84 1011.9
20260509052517 5 0 0.0 0.0 0.00 0.38 0.00 84 1011.8
20260509052016 5 0 0.0 0.0 0.00 0.38 0.00 85 1011.9
20260509051533 5 0 0.0 0.0 0.00 0.38 0.00 85 1011.9
20260509051014 5 0 0.0 0.0 0.00 0.38 0.00 84 1011.9
20260509050517 5 0 0.0 0.0 0.00 0.38 0.00 84 1011.9
20260509050034 5 0 0.0 0.0 0.00 0.38 0.00 84 1012.0
20260509045515 5 0 0.0 0.0 0.00 0.38 0.00 84 1012.0
20260509045016 5 0 0.0 0.0 0.00 0.38 0.00 85 1012.1
20260509044535 5 0 0.0 0.0 0.00 0.38 0.00 85 1012.2
20260509044015 5 0 0.0 0.0 0.00 0.38 0.00 86 1012.2
20260509043516 5 0 0.0 0.0 0.00 0.38 0.00 86 1012.2
20260509043035 5 0 0.0 0.0 0.00 0.38 0.00 86 1012.3
20260509042517 5 0 0.0 0.0 0.00 0.38 0.00 87 1012.2
20260509042018 5 0 0.0 0.0 0.00 0.38 0.00 88 1012.1
20260509041530 4 0 0.0 0.0 0.00 0.38 0.00 88 1012.1
20260509041017 4 0 0.0 0.0 0.00 0.38 0.00 89 1012.1
20260509040514 4 0 0.0 0.0 0.00 0.38 0.00 89 1012.0
20260509040040 3 0 0.0 0.0 0.00 0.38 0.00 90 1012.0
20260509035514 3 0 0.0 0.0 0.00 0.38 0.38 91 1012.0
20260509035015 3 0 0.0 0.0 0.00 0.38 0.38 92 1012.2
20260509034542 3 0 0.0 0.0 0.00 0.38 0.38 91 1012.1
20260509034017 3 0 0.0 0.0 0.00 0.38 0.38 90 1012.0
20260509033516 3 0 0.0 0.0 0.00 0.38 0.38 90 1012.0
20260509033028 3 0 0.0 0.0 0.00 0.38 0.38 90 1011.9
20260509032520 3 0 0.0 0.0 0.00 0.38 0.38 89 1011.9
20260509032017 3 0 0.0 0.0 0.00 0.38 0.38 90 1012.0
20260509031533 3 0 0.0 0.0 0.00 0.38 0.38 89 1012.1
20260509031016 3 0 0.0 0.0 0.00 0.38 0.38 90 1012.2
20260509030517 3 0 0.0 0.0 0.00 0.38 0.38 90 1012.2
20260509030030 3 0 0.0 0.0 0.00 0.38 0.38 91 1012.3
20260509025514 3 0 0.0 0.0 0.00 0.38 0.38 91 1012.3
20260509025014 3 0 0.0 0.0 0.00 0.38 0.38 91 1012.3
20260509024529 3 0 0.0 0.0 0.00 0.38 0.38 91 1012.4
20260509024014 3 0 0.0 0.0 0.00 0.38 0.38 92 1012.3
20260509023515 3 0 0.0 0.0 0.00 0.38 0.38 92 1012.4
20260509023029 2 0 0.0 0.0 0.00 0.38 0.38 92 1012.4
20260509022516 2 0 0.0 0.0 0.00 0.38 0.38 92 1012.5
20260509022014 2 0 0.0 0.0 0.00 0.38 0.38 91 1012.4
20260509021536 2 0 0.0 0.0 0.00 0.38 0.38 91 1012.3
20260509021014 2 0 0.0 0.0 0.00 0.38 0.38 91 1012.3
20260509020516 2 0 0.0 0.0 0.00 0.38 0.38 91 1012.2
20260509020033 2 0 0.0 0.0 0.00 0.38 0.38 91 1012.3
20260509015517 3 0 0.0 0.0 0.00 0.38 0.38 91 1012.4
20260509015017 3 0 0.0 0.0 0.00 0.38 0.38 90 1012.3
20260509014532 3 0 0.0 0.0 0.00 0.38 0.38 90 1012.3
20260509014016 3 0 0.0 0.0 0.00 0.38 0.38 90 1012.1
20260509013516 3 0 0.0 0.0 0.00 0.38 0.38 90 1012.0
20260509013030 3 0 0.0 0.0 0.00 0.38 0.38 89 1012.0
20260509012514 3 0 0.0 0.0 0.00 0.38 0.38 88 1011.9
20260509012016 3 0 0.0 0.0 0.00 0.38 0.38 88 1011.8
20260509011539 3 0 0.0 0.0 0.00 0.38 0.38 88 1011.8
20260509011014 3 0 0.0 0.0 0.00 0.38 0.38 87 1011.6
20260509010516 4 0 0.0 0.0 0.00 0.38 0.38 87 1011.6
20260509010039 4 0 0.0 0.0 0.00 0.38 0.38 86 1011.5
20260509005513 4 0 0.0 0.0 0.00 0.38 0.38 86 1011.5
20260509005014 5 0 0.0 0.0 0.00 0.38 0.38 86 1011.5
20260509004540 5 0 0.0 0.0 0.00 0.38 0.38 85 1011.3
20260509004015 5 0 0.0 0.0 0.00 0.38 0.38 85 1011.4
20260509003515 5 0 0.0 0.0 0.00 0.38 0.38 83 1011.2
20260509003032 6 0 0.0 0.0 0.00 0.38 0.38 82 1011.1
20260509002514 6 0 0.0 0.0 0.00 0.38 0.38 82 1011.0
20260509002015 6 0 0.0 0.0 0.00 0.38 0.38 81 1010.9
20260509001530 6 0 0.0 0.0 0.00 0.38 0.38 79 1010.9
20260509001014 7 0 0.0 0.0 0.00 0.38 0.38 78 1011.0
20260509000518 7 0 0.0 0.0 0.00 0.38 0.38 75 1011.0
20260509000034 7 0 0.0 0.0 0.00 0.38 0.38 73 1010.9
20260508235519 8 0 0.0 0.0 0.00 0.38 0.38 72 1010.9
20260508235018 8 0 0.0 0.0 0.00 0.38 0.38 70 1010.9
20260508234533 9 0 0.0 0.0 0.00 0.38 0.38 71 1010.9
20260508234019 10 0 0.0 0.0 0.00 0.38 0.38 68 1010.8
20260508233518 10 0 0.0 0.0 0.00 0.38 0.38 63 1010.6
20260508233031 11 0 0.0 0.0 0.00 0.38 0.38 63 1010.6
20260508232518 11 0 0.0 0.0 0.00 0.38 0.38 57 1010.7
20260508232017 11 0 0.0 0.0 0.00 0.38 0.38 53 1010.5
20260508231537 11 0 0.0 0.0 0.00 0.38 0.38 51 1010.6
20260508231019 11 0 0.0 0.0 0.00 0.38 0.38 53 1010.5
20260508230518 11 0 0.0 0.0 0.00 0.38 0.38 49 1010.5
20260508230037 11 0 0.0 0.0 0.00 0.38 0.38 51 1010.6
20260508225522 11 0 0.0 0.0 0.00 0.38 0.38 50 1010.6
20260508225019 12 0 0.0 0.0 0.00 0.38 0.38 51 1010.5
20260508224537 12 0 0.0 0.0 0.00 0.38 0.38 49 1010.5
20260508224018 12 0 0.0 0.0 0.00 0.38 0.38 51 1010.8
20260508223518 12 0 0.0 0.0 0.00 0.38 0.38 49 1010.8
20260508223041 12 0 0.0 0.0 0.00 0.38 0.38 50 1010.7